Regional Weather Roundup
Issued by NWS New Orleans/Baton Rouge, LA

Home | Current Version | Previous Version | Text Only | Print | Product List | Glossary On
Versions: 1 2 3 4 5 6 7 8 9 10 11 12 13 14 15 16 17 18 19 20 21 22 23 24 25 26 27 28 29 30 31 32 33 34 35 36 37 38 39 40 41 42 43 44 45 46 47 48 49 50
000
ASUS44 KLIX 301511
RWRLIX
NEW ORLEANS REGIONAL WEATHER ROUNDUP
NATIONAL WEATHER SERVICE NEW ORLEANS LA
1000 AM CDT TUE JUN 30 2015

NOTE: "FAIR" INDICATES FEW OR NO CLOUDS BELOW 12,000 FEET WITH NO
      SIGNIFICANT WEATHER AND/OR OBSTRUCTIONS TO VISIBILITY.
      SKY/WX - SKY CONDITION AND SIGNIFICANT WEATHER.
      TMP - AIR TEMPERATURE.     DP    - DEWPOINT TEMPERATURE.
      RH  - RELATIVE HUMIDITY.   PRES  - PRESSURE.
      HI  - HEAT INDEX.          WCI   - WIND CHILL INDEX.

*  THESE STATIONS ARE NOT NWS OR FAA STATIONS AND ARE NOT UNDER
   NWS QUALITY CONTROL.

LAZ038-040-048-061>063-065>067-069-301600-
SOUTHEAST LOUISIANA

CITY           SKY/WX    TMP DP  RH WIND       PRES   REMARKS
N.O. AUDUBON   NOT AVBL
N.O. INTL ARPT PTSUNNY   87  75  67 SW12      30.09S HX  96
N.O. LAKEFRONT PTSUNNY   88  73  61 W13       30.09S HX  95
N.O. DOWNTOWN*   N/A     88  75  66 S8        30.10S HX  97
RESERVE*         N/A     86  77  74 SW8       30.09S HX  98
SLIDELL        PTSUNNY   83  76  79 VRB6      30.08F
BATON ROUGE    MOSUNNY   84  76  76 W8        30.08S
BOOTHVILLE     MOSUNNY   86  76  71 SW9       30.11S HX  96
BELLE CHASSE   PTSUNNY   84  75  74 W10       30.09S
BOGALUSA*        N/A     83  74  72 W10       30.10S
GALLIANO*      PTSUNNY   87  75  67 MISG      30.10F HX  97
NEW ROADS*       N/A    N/A N/A N/A W5        30.08F
GONZALES*        N/A     84  78  81 SW7       30.08R
HAMMOND*       MOSUNNY   84  73  70 W3        30.10F
HOUMA*         MOSUNNY   84  77  79 S5        30.09S FOG
PORT FOURCHON* MOSUNNY   86  75  70 SW7       30.11R HX  95

$$

MSZ070-080>082-301600-
SOUTHERN MISSISSIPPI

CITY           SKY/WX    TMP DP  RH WIND       PRES   REMARKS
MCCOMB         MOSUNNY   82  76  81 SW12      30.08F
GULFPORT       MOSUNNY   84  74  71 W7        30.08F
BILOXI         MOSUNNY   84  76  77 SW10      30.09S
PASCAGOULA     MOSUNNY   86  75  69 W7        30.09S HX  95
STENNIS ARPT*  MOSUNNY   82  72  69 MISG      30.09F

$$

COASTAL OBSERVATIONS
LAKE AND NEARSHORE STATIONS

STATION/POSITION TIME  TEMP    WIND        PRES    WAVE
                       AIR SEA DIR/SP/G            HT/PER
                 (UTC) (F)     (DEG/KT/KT) (MB)    (FT/S)
PASCAGOULA       1400   83     250/ 11/ 13 1018.5
WAVELAND YACHT   1400   82 84  260/  6/  9 1019.3
GRAND ISLE       1400   83 84  230/  5/  8 1019.3
SOUTHWEST PASS   1400   84 83  230/ 11/ 13 1019.5
NEW CANAL        1400   84 83  240/  6/  9 1018.2
SHELL BEACH      1400   82 83  240/ 10/ 14 1018.5

OFFSHORE STATIONS

STATION/POSITION TIME  TEMP    WIND        PRES    WAVE
                       AIR SEA DIR/SP/G            HT/PER
                 (UTC) (F)     (DEG/KT/KT) (MB)    (FT/S)
64 S DAUPHIN ISL 1450   83 84  270/ 12/ 14 1019.4    2/ 3

$$




USA.gov is the U.S. government's official web portal to all federal, state and local government web resources and services.